Location: Peterborough
(44.3091°N, 78.3197°W)
Time: 02:54:18
(UTC-04:00)

Explorer 11/Cluster Stage 4 - Visible Passes

Search period start: 03 October 2023 00:00
Search period end: 13 October 2023 00:00
Orbit: 466 x 1233 km, 28.8° (Epoch: 02 October)

Date Brightness Start Highest point End Pass type
(mag) Time Alt. Az. Time Alt. Az. Time Alt. Az.
03 Oct 8.6 20:16:11 10° SW 20:20:53 21° S 20:24:08 16° SE visible
03 Oct 9.1 22:03:45 10° SW 22:05:57 16° SW 22:05:57 16° SW visible
04 Oct 8.6 20:01:13 10° SW 20:05:37 20° S 20:09:44 12° SE visible
04 Oct 9.0 21:48:51 10° SW 21:51:34 17° SSW 21:51:34 17° SSW visible
05 Oct 8.6 19:46:16 10° SW 19:50:23 19° S 19:55:01 10° SE visible
05 Oct 9.0 21:34:00 10° SW 21:37:11 16° SSW 21:37:11 16° SSW visible
06 Oct 8.7 19:31:22 10° SW 19:35:08 18° S 19:39:23 10° SE visible
06 Oct 9.0 21:19:16 10° SW 21:22:42 15° SSW 21:22:49 15° SSW visible
07 Oct 8.7 19:16:31 10° SW 19:19:55 17° S 19:23:43 10° SE visible
07 Oct 9.0 21:04:41 10° SW 21:07:25 13° SSW 21:08:29 12° S visible
08 Oct 9.1 20:50:27 10° SSW 20:52:08 11° SSW 20:53:54 10° S visible
